Погода Костанай

Погода Костанай : погода сейчас, прогноз погоды и архив. Всё, что Вы хотите узнать о погоде Костанай!

Хотите узнать прогноз погоды в Костанае? Тогда Вам сюда: Погода в Костанае

Поиск расширенной информации на нашем сайте:

Другие новости

Новости СМИ2

Главная страница сайта

Новости сайта

02.10.2013

Напоминаем, что на нашем новом сайте вы можете получить высокодетализированные прогнозы погоды по пунктам России, СНГ и мира (включающие важные для авиации метеовеличины, такие как направление и скорость ветра, видимость, явления погоды, количество и форма облачности, нижняя и верхняя граница облачности), а также ознакомиться с разнообразными материалами по авиационной метеорологии и подборкой полезных ссылок на эту тему.

Сайт Метеоцентр.Азия посвящён разработке технологий оптимизации авиаметеорологического обслуживания, включая проектирование и перспективное создание нескольких автоматизированных авиаметеорологических систем:
- система выпуска высокодетальных прогностических карт явлений погоды для нижнего воздушного пространства по России и ближнему зарубежью;
- система верификации прогнозов TAF (выпускаемых синоптиками официальных АМСГ РФ и ближнего зарубежья) и AUTOTAF (выпускаемых сайтом Метеоцентр.Азия) - выявление ошибок, онлайн-сопоставление с фактической погодой METAR, автоматическое внесение коррективов в прогнозы при резком отклонении фактической погоды от прогноза, подсчёт оправдываемости прогнозов по элементам и в целом;
- система обработки, анализа и отображения авиаметеорологической информации для применения провайдерами метеорологической информации.


Погода Костанай - сегодня

Время (UTC), дата Ветер
(°,м/с) 
Видим.   Явления Облачность Т
(°С)
Тd
(°С)
f(%) Тe
(°С)
Pmin
(гПа)
dP
(гПа)
Po
(мм)
O2
(г/м3)
Тmin Tmax R s Состояние
почвы
12 25.02.17 200 (Ю) 4000 м  слаб. снег  10/6 1000 м средняя 
[Sc|As op]
-4.6 -7.7 79 -8  1016.3  0.2  748  307           
15 25.02.17 180 (Ю) н/о  слаб. снег  10/0 средняя 
[As op]
-3.5 -6 83 -8  1015.1  -1.1  747  305    -3.5  0.2     
18 25.02.17 180 (Ю) н/о  слаб. снег  10/10 600 м 
[Ns]
-1.3 -3.3 86 -5  1013.9  -1.1  746  302    -3.5  0.2     
21 25.02.17 180 (Ю) н/о  {снег}  10/10 600 м 
[Sc]
+0.5 -1.2 88 -2  1012  -1.7  745  300           
00 26.02.17 180 (Ю) н/о  {снег}  10/10 600 м 
[Sc]
+1.7 -0.5 85 -2  1010.6  -1.2  744  298           
03 26.02.17 180 (Ю) 10 км  слаб. дождь  10/10 600 м 
[Sc]
+1.9 -0 87 -2  1010.3  -0.4  744  297      36  неравномерный
мокрый или
старый снег
100% 
06 26.02.17 180 (Ю) 20000 м  {дождь}  10/10 600 м 
[Sc]
+2.9 +0.8 86 -1  1010.8  0.6  744  296  -3.5       
09 26.02.17 180 (Ю) 10  20000 м    9/9 1000 м 
[Sc]
+2.4 -0.3 82 -2  1010.7  -0.2  744  297           
12 26.02.17 180 (Ю) 10  20000 м    9/9 600 м 
[Sc]
+2.3 -1 79 -2  1010.4  -0.3  744  297           
18 26.02.17 180 (Ю) 12-16{16}  н/о    9/9 600 м 
[Sc]
+1.8 -1.9 76 -3  1009.1  -0.6  743  298    +2.9  0.3     
21 26.02.17 тихо ()   н/о  слаб. снег  1/0 средняя 
[As op]
-3   1008.9  -0.3  743             
00 27.02.17 180 (Ю) н/о  слаб. снег  10/5 600 м средняя 
[Frnb|As op]
+0.2 -2.2 84 -4  1006.7  -2.2  741  299           
03 27.02.17 320 (СЗ) 10  4000 м  слаб. снег  10/0 средняя 
[As op]
-2.6 -4.6 86 -8  1005  -1.9  739  301      36  неравномерный
сухой снег
100% 
06 27.02.17 270 (З) 10  20000 м  позёмок{снег}  8/0 средняя 
[Ac trans]
-2.9 -6 79 -8  1012.1  6.9  745  304  -2.6       
09 27.02.17 250 (З) 20000 м    ясно 
-1.7 -7.8 63 -6  1015.8  3.8  747  304           
12 27.02.17 230 (ЮЗ) 20000 м    ясно 
-1.8 -7.1 67 -6  1019.2  3.3  750  305           
15 27.02.17 200 (Ю) н/о    ясно 
-4.3 -8.1 75 -9  1021.5  2.1  752  308    -1.7  0.2     
18 27.02.17 200 (Ю) н/о    ясно 
-6.6 -9.8 78 -11  1023.4  1.6  753  312    -1.7  0.2     
21 27.02.17 200 (Ю) н/о    ясно 
-8.2 -10.9 81 -13  1024  0.6  753  314           
00 28.02.17 200 (Ю) н/о    ясно 
-9.6 -12.6 79 -15  1024.5  0.4  753  316           
03 28.02.17 180 (Ю) 20000 м    9/0 средняя, верхняя 
[Ac trans|Ci]
-9.7 -12.8 78 -15  1024.9  0.4  754  316        33  неравномерный
сухой снег
100% 
06 28.02.17 200 (Ю) 20000 м    9/0 верхняя 
[Ci]
-6.7 -11.3 70 -10  1025.3  0.5  754  313  -9.7         
09 28.02.17 180 (Ю) 20000 м    9/0 средняя, верхняя 
[Ac trans|Ci]
-5.9 -10.7 69 -8  1025.2  0.1  754  312           
12 28.02.17 180 (Ю) 20000 м    4/0 верхняя 
[Ci fib]
-5.9 -10.2 72 -9  1024.9  -0.3  754  312           
15 28.02.17 180 (Ю) н/о    9/0 средняя 
[Ac trans]
-8.1 -11.3 78 -12  1024.5  -0.6  754  314    -4.7       
Время (UTC), дата Ветер
(°,м/с) 
Видим.   Явления Облачность Т
(°С)
Тd
(°С)
f(%) Тe
(°С)
Pmin
(гПа)
dP
(гПа)
Po
(мм)
O2
(г/м3)
Тmin Tmax R s Состояние
почвы

Для получения пояснительной информации подведите курсор к названию столбца.

ПОГОДА Костанай - архив

Всё, что Вы хотите узнать о погоде Костанай - удобно и подробно!

Выберите нужную дату (начиная с 1 января 2015* года) и нажмите кнопку "Найти".
Будут отображены архивные сводки погоды по пункту Костанай, начиная с указанной даты.


Отображать данные в формате CSV (для использования в таблицах Excel)


Внимание! Наш архив погоды предназначен исключительно для личного некоммерческого использования в познавательных целях. Если Вам необходимы официальные справки о состоянии погоды (для производственных, юридических, коммерческих и т.п. целей), обращайтесь в органы Росгидромета.

*Примечание: данная дата относится к архиву по метеостанциям СССР (Россия, СНГ, Балтия).
Архив по метеостанциям Зарубежной Европы и Азии (кроме Китая) хранится 10 дней, по другим регионам земного шара (Китай, Африка, Америка, Австралия, Океания) - 1 день.

Костанай - район местоположения метеостанции


Название, широта, долгота, высота метеостанции:
Костанай (город) 53.2°ш. 63.6°д. 156 м над ур. моря [Казахстан]

Дополнительная информация

В oтличие oт бoльшинства пoгoдных сайтoв мы публикуем пoдрoбную метеoинфoрмацию в детальнoм прoфессиoнальнoм фoрмате.

Характеристики температуры и влажнoсти вoздуха измеряются на высoте 2 м в тени вдали oт зданий и деревьев.
Скoрoсть ветра измеряется на высoте 10 м (на урoвне рoста челoвека скoрoсть ветра ниже в 1.5-2 раза). Если метеoстанция нахoдится в гoрoде или в лесу, тo скoрoсть ветра занижена на 2-4 м/с пo сравнению с oткрытым местoм. Скoрoсть ветра над акватoриями крупных рек и oзёр, а также на вершинах хoлмoв на 2-5 м/с выше, чем в oбычных услoвиях.
Атмoсфернoе давление в разных тoчках местнoсти мoжет значительнo oтличаться oт давления на метеoстанции, в зависимoсти oт услoвий рельефа (при пoдъёме на 10 м давление пoнижается примернo на 1 мм рт.ст.).